Time,TemperatureF,DewpointF,PressureIn,WindDirection,WindDirectionDegrees,WindSpeedMPH,WindSpeedGustMPH,Humidity,HourlyPrecipIn,Conditions,Clouds,dailyrainin,SolarRadiationWatts/m^2,SoftwareType,DateUTC
2013-01-31 00:03:00,58.8,55.6,29.90,NNW,328,4.0,4.0,89,0.04,,,0.00,0,Wunderground v.1.15,2013-01-31 05:03:00,
2013-01-31 00:08:00,58.6,55.7,29.90,West,260,4.0,4.0,90,0.00,,,0.00,0,Wunderground v.1.15,2013-01-31 05:08:00,
2013-01-31 00:13:00,58.5,55.6,29.91,WSW,240,4.0,7.0,90,0.00,,,0.00,0,Wunderground v.1.15,2013-01-31 05:13:00,
2013-01-31 00:18:00,58.1,54.9,29.91,WSW,257,3.0,7.0,89,0.00,,,0.00,0,Wunderground v.1.15,2013-01-31 05:18:00,
2013-01-31 00:23:00,57.7,54.8,29.92,West,259,4.0,4.0,90,0.00,,,0.00,0,Wunderground v.1.15,2013-01-31 05:23:00,
2013-01-31 00:28:00,57.3,54.4,29.92,WSW,254,4.0,7.0,90,0.00,,,0.01,0,Wunderground v.1.15,2013-01-31 05:28:00,
2013-01-31 00:33:00,56.5,53.3,29.93,North,352,4.0,5.0,89,0.19,,,0.03,0,Wunderground v.1.15,2013-01-31 05:33:00,
2013-01-31 00:43:00,55.4,52.2,29.92,SW,233,4.0,4.0,89,0.18,,,0.06,0,Wunderground v.1.15,2013-01-31 05:43:00,
2013-01-31 00:48:00,54.7,51.5,29.91,WSW,258,3.0,4.0,89,0.07,,,0.06,0,Wunderground v.1.15,2013-01-31 05:48:00,
2013-01-31 00:58:00,54.1,50.9,29.92,West,259,1.0,2.0,89,0.00,,,0.06,0,Wunderground v.1.15,2013-01-31 05:58:00,
2013-01-31 01:03:00,53.9,50.7,29.92,WSW,251,1.0,1.0,89,0.00,,,0.06,0,Wunderground v.1.15,2013-01-31 06:03:00,
2013-01-31 01:13:00,53.9,51.0,29.93,WSW,243,0.0,5.0,90,0.00,,,0.06,0,Wunderground v.1.15,2013-01-31 06:13:00,
2013-01-31 01:18:00,53.8,50.9,29.93,WSW,241,1.0,5.0,90,0.00,,,0.06,0,Wunderground v.1.15,2013-01-31 06:18:00,
2013-01-31 01:28:00,53.7,51.1,29.94,West,264,1.0,5.0,91,0.00,,,0.06,0,Wunderground v.1.15,2013-01-31 06:28:00,
2013-01-31 01:33:00,53.5,50.9,29.94,WSW,245,2.0,4.0,91,0.00,,,0.06,0,Wunderground v.1.15,2013-01-31 06:33:00,
2013-01-31 01:43:00,53.4,50.8,29.93,WSW,245,1.0,1.0,91,0.00,,,0.06,0,Wunderground v.1.15,2013-01-31 06:43:00,
2013-01-31 01:53:00,53.5,50.9,29.94,WSW,243,0.0,1.0,91,0.00,,,0.06,0,Wunderground v.1.15,2013-01-31 06:53:00,
2013-01-31 01:58:00,53.6,51.0,29.94,WSW,245,0.0,1.0,91,0.00,,,0.06,0,Wunderground v.1.15,2013-01-31 06:58:00,
2013-01-31 02:03:00,53.6,51.0,29.94,WSW,251,0.0,0.0,91,0.00,,,0.06,0,Wunderground v.1.15,2013-01-31 07:03:00,
2013-01-31 02:13:00,53.8,51.5,29.95,WSW,249,1.0,1.0,92,0.00,,,0.06,0,Wunderground v.1.15,2013-01-31 07:13:00,
2013-01-31 02:18:00,53.8,51.5,29.95,WSW,249,1.0,1.0,92,0.00,,,0.06,0,Wunderground v.1.15,2013-01-31 07:18:00,
2013-01-31 02:28:00,54.0,51.7,29.95,WSW,249,0.0,4.0,92,0.00,,,0.06,0,Wunderground v.1.15,2013-01-31 07:28:00,
2013-01-31 02:33:00,54.0,51.7,29.95,WSW,249,1.0,1.0,92,0.00,,,0.06,0,Wunderground v.1.15,2013-01-31 07:33:00,
2013-01-31 02:43:00,54.1,51.8,29.95,WSW,251,0.0,0.0,92,0.00,,,0.06,0,Wunderground v.1.15,2013-01-31 07:43:00,
2013-01-31 02:48:00,54.2,51.9,29.95,WSW,251,0.0,0.0,92,0.00,,,0.06,0,Wunderground v.1.15,2013-01-31 07:48:00,
2013-01-31 02:58:00,54.2,51.9,29.95,WSW,244,1.0,2.0,92,0.00,,,0.06,0,Wunderground v.1.15,2013-01-31 07:58:00,
2013-01-31 03:03:00,54.2,51.9,29.95,WSW,245,1.0,1.0,92,0.00,,,0.06,0,Wunderground v.1.15,2013-01-31 08:03:00,
2013-01-31 03:13:00,54.1,51.5,29.96,WSW,251,2.0,2.0,91,0.00,,,0.06,0,Wunderground v.1.15,2013-01-31 08:13:00,
2013-01-31 03:18:00,54.0,51.4,29.95,WSW,251,1.0,3.0,91,0.00,,,0.06,0,Wunderground v.1.15,2013-01-31 08:18:00,
2013-01-31 03:28:00,53.8,50.9,29.96,WSW,255,2.0,2.0,90,0.00,,,0.06,0,Wunderground v.1.15,2013-01-31 08:28:00,
2013-01-31 03:33:00,53.8,50.9,29.96,WSW,255,1.0,3.0,90,0.00,,,0.06,0,Wunderground v.1.15,2013-01-31 08:33:00,
2013-01-31 03:43:00,53.8,50.9,29.96,WSW,255,1.0,1.0,90,0.00,,,0.06,0,Wunderground v.1.15,2013-01-31 08:43:00,
2013-01-31 03:48:00,53.8,50.9,29.96,WSW,254,1.0,1.0,90,0.00,,,0.06,0,Wunderground v.1.15,2013-01-31 08:48:00,
2013-01-31 03:58:00,53.7,50.5,29.96,SW,224,1.0,1.0,89,0.00,,,0.06,0,Wunderground v.1.15,2013-01-31 08:58:00,
2013-01-31 04:03:00,53.5,50.3,29.96,West,269,2.0,6.0,89,0.00,,,0.06,0,Wunderground v.1.15,2013-01-31 09:03:00,
2013-01-31 04:13:00,53.2,49.7,29.97,WSW,253,2.0,2.0,88,0.00,,,0.06,0,Wunderground v.1.15,2013-01-31 09:13:00,
2013-01-31 04:18:00,53.2,49.4,29.97,WSW,255,1.0,2.0,87,0.00,,,0.06,0,Wunderground v.1.15,2013-01-31 09:18:00,
2013-01-31 04:28:00,53.1,49.0,29.97,West,270,2.0,2.0,86,0.00,,,0.06,0,Wunderground v.1.15,2013-01-31 09:28:00,
2013-01-31 04:33:00,53.1,48.7,29.98,West,266,2.0,3.0,85,0.00,,,0.07,0,Wunderground v.1.15,2013-01-31 09:33:00,
2013-01-31 04:43:00,53.2,48.8,29.98,WSW,257,2.0,2.0,85,0.00,,,0.07,0,Wunderground v.1.15,2013-01-31 09:43:00,
2013-01-31 04:48:00,53.2,48.8,29.98,WSW,257,1.0,2.0,85,0.00,,,0.07,0,Wunderground v.1.15,2013-01-31 09:48:00,
2013-01-31 04:53:00,53.2,48.5,29.98,WSW,257,1.0,1.0,84,0.00,,,0.07,0,Wunderground v.1.15,2013-01-31 09:53:00,
2013-01-31 04:58:00,53.1,48.4,29.98,WSW,257,1.0,5.0,84,0.00,,,0.07,0,Wunderground v.1.15,2013-01-31 09:58:00,
2013-01-31 05:08:00,52.8,48.1,29.99,NW,320,3.0,7.0,84,0.00,,,0.07,0,Wunderground v.1.15,2013-01-31 10:08:00,
2013-01-31 05:13:00,52.8,47.8,29.99,NW,326,3.0,7.0,83,0.00,,,0.07,0,Wunderground v.1.15,2013-01-31 10:13:00,
2013-01-31 05:18:00,52.8,47.5,29.99,NW,325,4.0,6.0,82,0.00,,,0.07,0,Wunderground v.1.15,2013-01-31 10:18:00,
2013-01-31 05:28:00,52.9,47.2,30.00,West,269,3.0,4.0,81,0.00,,,0.07,0,Wunderground v.1.15,2013-01-31 10:28:00,
2013-01-31 05:33:00,52.8,47.1,30.00,West,268,3.0,4.0,81,0.00,,,0.07,0,Wunderground v.1.15,2013-01-31 10:33:00,
2013-01-31 05:43:00,52.8,47.1,30.01,NNW,339,3.0,6.0,81,0.00,,,0.07,0,Wunderground v.1.15,2013-01-31 10:43:00,
2013-01-31 05:48:00,52.7,46.4,30.01,NW,322,4.0,4.0,79,0.00,,,0.07,0,Wunderground v.1.15,2013-01-31 10:48:00,
2013-01-31 05:58:00,52.5,45.8,30.02,NNW,332,5.0,8.0,78,0.00,,,0.07,0,Wunderground v.1.15,2013-01-31 10:58:00,
2013-01-31 06:03:00,52.3,45.6,30.03,West,269,4.0,4.0,78,0.00,,,0.07,0,Wunderground v.1.15,2013-01-31 11:03:00,
2013-01-31 06:13:00,51.9,45.3,30.03,NNW,337,4.0,4.0,78,0.00,,,0.07,0,Wunderground v.1.15,2013-01-31 11:13:00,
2013-01-31 06:18:00,51.6,45.0,30.04,NNW,344,4.0,4.0,78,0.00,,,0.07,0,Wunderground v.1.15,2013-01-31 11:18:00,
2013-01-31 06:28:00,50.8,42.8,30.05,SSW,208,4.0,4.0,74,0.00,,,0.07,0,Wunderground v.1.15,2013-01-31 11:28:00,
2013-01-31 06:33:00,50.5,41.8,30.06,NW,311,5.0,5.0,72,0.00,,,0.07,0,Wunderground v.1.15,2013-01-31 11:33:00,
2013-01-31 06:43:00,50.0,41.0,30.07,North,349,4.0,4.0,71,0.00,,,0.07,0,Wunderground v.1.15,2013-01-31 11:43:00,
2013-01-31 06:48:00,49.8,40.8,30.07,North,354,5.0,5.0,71,0.00,,,0.07,0,Wunderground v.1.15,2013-01-31 11:48:00,
2013-01-31 06:58:00,49.4,40.7,30.07,NNW,340,2.0,4.0,72,0.00,,,0.07,0,Wunderground v.1.15,2013-01-31 11:58:00,
2013-01-31 07:08:00,48.9,40.3,30.07,NNW,330,2.0,7.0,72,0.00,,,0.07,0,Wunderground v.1.15,2013-01-31 12:08:00,
2013-01-31 07:13:00,48.7,40.1,30.07,NNW,345,2.0,7.0,72,0.00,,,0.07,0,Wunderground v.1.15,2013-01-31 12:13:00,
2013-01-31 07:18:00,48.5,39.9,30.07,NE,45,2.0,2.0,72,0.00,,,0.07,0,Wunderground v.1.15,2013-01-31 12:18:00,
2013-01-31 07:28:00,48.2,41.0,30.07,NNW,343,1.0,2.0,76,0.00,,,0.07,7,Wunderground v.1.15,2013-01-31 12:28:00,
2013-01-31 07:33:00,48.0,39.8,30.09,NW,319,1.0,2.0,73,0.00,,,0.07,11,Wunderground v.1.15,2013-01-31 12:33:00,
2013-01-31 07:43:00,47.9,39.3,30.09,NW,309,3.0,5.0,72,0.00,,,0.07,14,Wunderground v.1.15,2013-01-31 12:43:00,
2013-01-31 07:48:00,47.8,39.2,30.10,NW,319,3.0,5.0,72,0.00,,,0.07,16,Wunderground v.1.15,2013-01-31 12:48:00,
2013-01-31 07:53:00,47.7,39.1,30.10,West,260,2.0,5.0,72,0.00,,,0.07,18,Wunderground v.1.15,2013-01-31 12:53:00,
2013-01-31 07:58:00,47.7,39.1,30.11,NW,324,2.0,3.0,72,0.00,,,0.07,18,Wunderground v.1.15,2013-01-31 12:58:00,
2013-01-31 08:03:00,47.6,38.3,30.11,NNW,339,3.0,3.0,70,0.00,,,0.07,19,Wunderground v.1.15,2013-01-31 13:03:00,
2013-01-31 08:13:00,47.5,37.5,30.11,NNW,335,4.0,4.0,68,0.00,,,0.07,21,Wunderground v.1.15,2013-01-31 13:13:00,
2013-01-31 08:18:00,47.5,37.1,30.12,NNW,329,5.0,5.0,67,0.00,,,0.07,23,Wunderground v.1.15,2013-01-31 13:18:00,
2013-01-31 08:28:00,47.4,37.0,30.12,NW,317,3.0,7.0,67,0.00,,,0.07,25,Wunderground v.1.15,2013-01-31 13:28:00,
2013-01-31 08:33:00,47.4,36.6,30.13,NNW,334,3.0,4.0,66,0.00,,,0.07,26,Wunderground v.1.15,2013-01-31 13:33:00,
2013-01-31 08:43:00,47.4,36.2,30.13,NW,322,2.0,2.0,65,0.00,,,0.07,26,Wunderground v.1.15,2013-01-31 13:43:00,
2013-01-31 08:48:00,47.6,36.8,30.14,NW,308,2.0,2.0,66,0.00,,,0.07,28,Wunderground v.1.15,2013-01-31 13:48:00,
2013-01-31 08:58:00,47.6,36.8,30.14,NNW,334,3.0,3.0,66,0.00,,,0.07,30,Wunderground v.1.15,2013-01-31 13:58:00,
2013-01-31 09:08:00,47.8,37.4,30.15,NNW,327,2.0,3.0,67,0.00,,,0.07,37,Wunderground v.1.15,2013-01-31 14:08:00,
2013-01-31 09:13:00,47.8,37.4,30.14,NNW,337,4.0,4.0,67,0.00,,,0.07,33,Wunderground v.1.15,2013-01-31 14:13:00,
2013-01-31 09:18:00,48.0,37.6,30.14,WNW,293,4.0,6.0,67,0.00,,,0.07,40,Wunderground v.1.15,2013-01-31 14:18:00,
2013-01-31 09:23:00,48.1,37.7,30.15,NW,320,2.0,6.0,67,0.00,,,0.07,37,Wunderground v.1.15,2013-01-31 14:23:00,
2013-01-31 09:28:00,48.3,37.5,30.15,NE,34,2.0,2.0,66,0.00,,,0.07,39,Wunderground v.1.15,2013-01-31 14:28:00,
2013-01-31 09:38:00,48.7,37.8,30.15,NW,315,2.0,2.0,66,0.00,,,0.07,406,Wunderground v.1.15,2013-01-31 14:38:00,
2013-01-31 09:43:00,49.0,37.7,30.15,North,353,2.0,2.0,65,0.00,,,0.07,72,Wunderground v.1.15,2013-01-31 14:43:00,
2013-01-31 09:48:00,49.2,37.1,30.16,NNW,334,3.0,3.0,63,0.00,,,0.07,130,Wunderground v.1.15,2013-01-31 14:48:00,
2013-01-31 09:58:00,49.6,37.5,30.15,NNW,328,3.0,3.0,63,0.00,,,0.07,374,Wunderground v.1.15,2013-01-31 14:58:00,
2013-01-31 10:03:00,50.0,37.1,30.16,WNW,303,3.0,4.0,61,0.00,,,0.07,524,Wunderground v.1.15,2013-01-31 15:03:00,
2013-01-31 10:13:00,50.9,37.1,30.16,NW,320,3.0,3.0,59,0.00,,,0.07,548,Wunderground v.1.15,2013-01-31 15:13:00,
2013-01-31 10:18:00,51.3,37.0,30.15,NW,307,2.0,3.0,58,0.00,,,0.07,563,Wunderground v.1.15,2013-01-31 15:18:00,
2013-01-31 10:28:00,52.1,36.9,30.16,West,280,2.0,5.0,56,0.00,,,0.07,587,Wunderground v.1.15,2013-01-31 15:28:00,
2013-01-31 10:33:00,52.2,36.5,30.16,West,270,3.0,3.0,55,0.00,,,0.07,601,Wunderground v.1.15,2013-01-31 15:33:00,
2013-01-31 10:43:00,52.7,36.5,30.16,NE,39,3.0,3.0,54,0.00,,,0.07,619,Wunderground v.1.15,2013-01-31 15:43:00,
2013-01-31 10:48:00,53.0,36.3,30.16,WNW,296,2.0,5.0,53,0.00,,,0.07,629,Wunderground v.1.15,2013-01-31 15:48:00,
2013-01-31 10:58:00,53.5,35.8,30.16,WNW,303,3.0,4.0,51,0.00,,,0.07,649,Wunderground v.1.15,2013-01-31 15:58:00,
2013-01-31 11:03:00,53.9,35.7,30.17,NW,326,3.0,3.0,50,0.00,,,0.07,657,Wunderground v.1.15,2013-01-31 16:03:00,
2013-01-31 11:13:00,55.0,35.1,30.16,NW,315,1.0,1.0,47,0.00,,,0.07,673,Wunderground v.1.15,2013-01-31 16:13:00,
2013-01-31 11:18:00,55.0,35.1,30.16,WNW,293,2.0,2.0,47,0.00,,,0.07,680,Wunderground v.1.15,2013-01-31 16:18:00,
2013-01-31 11:28:00,55.0,33.5,30.16,NW,305,2.0,4.0,44,0.00,,,0.07,696,Wunderground v.1.15,2013-01-31 16:28:00,
2013-01-31 11:33:00,55.0,33.5,30.16,NE,55,2.0,3.0,44,0.00,,,0.07,700,Wunderground v.1.15,2013-01-31 16:33:00,
2013-01-31 11:43:00,55.8,33.6,30.16,WNW,299,2.0,3.0,43,0.00,,,0.07,708,Wunderground v.1.15,2013-01-31 16:43:00,
2013-01-31 11:48:00,56.1,32.7,30.16,WNW,291,3.0,6.0,41,0.00,,,0.07,714,Wunderground v.1.15,2013-01-31 16:48:00,
2013-01-31 11:53:00,56.2,33.4,30.16,NW,315,3.0,3.0,42,0.00,,,0.07,715,Wunderground v.1.15,2013-01-31 16:53:00,
2013-01-31 11:58:00,56.5,33.7,30.16,NNW,340,2.0,3.0,42,0.00,,,0.07,721,Wunderground v.1.15,2013-01-31 16:58:00,
2013-01-31 12:03:00,56.7,32.6,30.16,WNW,288,3.0,6.0,40,0.00,,,0.07,724,Wunderground v.1.15,2013-01-31 17:03:00,
2013-01-31 12:13:00,57.3,33.2,30.16,WNW,282,3.0,9.0,40,0.00,,,0.07,729,Wunderground v.1.15,2013-01-31 17:13:00,
2013-01-31 12:18:00,57.3,33.2,30.16,WNW,286,3.0,9.0,40,0.00,,,0.07,729,Wunderground v.1.15,2013-01-31 17:18:00,
2013-01-31 12:28:00,57.5,32.7,30.16,North,359,3.0,5.0,39,0.00,,,0.07,731,Wunderground v.1.15,2013-01-31 17:28:00,
2013-01-31 12:33:00,57.8,31.7,30.15,West,261,3.0,4.0,37,0.00,,,0.07,733,Wunderground v.1.15,2013-01-31 17:33:00,
2013-01-31 12:43:00,58.5,33.6,30.15,West,263,3.0,3.0,39,0.00,,,0.07,729,Wunderground v.1.15,2013-01-31 17:43:00,
2013-01-31 12:48:00,58.4,32.2,30.15,NE,37,2.0,3.0,37,0.00,,,0.07,729,Wunderground v.1.15,2013-01-31 17:48:00,
2013-01-31 12:58:00,58.9,33.3,30.15,WSW,253,1.0,2.0,38,0.00,,,0.07,726,Wunderground v.1.15,2013-01-31 17:58:00,
2013-01-31 13:03:00,59.8,33.5,30.14,NNW,347,2.0,4.0,37,0.00,,,0.07,726,Wunderground v.1.15,2013-01-31 18:03:00,
2013-01-31 13:13:00,58.9,32.7,30.13,NW,326,4.0,5.0,37,0.00,,,0.07,719,Wunderground v.1.15,2013-01-31 18:13:00,
2013-01-31 13:18:00,58.8,30.5,30.13,North,364,4.0,5.0,34,0.00,,,0.07,714,Wunderground v.1.15,2013-01-31 18:18:00,
2013-01-31 13:28:00,59.3,32.3,30.13,NW,314,2.0,3.0,36,0.00,,,0.07,703,Wunderground v.1.15,2013-01-31 18:28:00,
2013-01-31 13:33:00,60.1,33.0,30.13,North,353,2.0,2.0,36,0.00,,,0.07,700,Wunderground v.1.15,2013-01-31 18:33:00,
2013-01-31 13:43:00,60.3,31.8,30.13,WNW,289,2.0,2.0,34,0.00,,,0.07,687,Wunderground v.1.15,2013-01-31 18:43:00,
2013-01-31 13:53:00,60.0,29.2,30.13,WNW,295,3.0,3.0,31,0.00,,,0.07,677,Wunderground v.1.15,2013-01-31 18:53:00,
2013-01-31 13:58:00,59.9,29.2,30.14,NNW,347,4.0,11.0,31,0.00,,,0.07,664,Wunderground v.1.15,2013-01-31 18:58:00,
2013-01-31 14:03:00,59.8,30.6,30.13,NW,307,4.0,4.0,33,0.00,,,0.07,656,Wunderground v.1.15,2013-01-31 19:03:00,
2013-01-31 14:13:00,60.4,30.4,30.13,NW,318,3.0,10.0,32,0.00,,,0.07,642,Wunderground v.1.15,2013-01-31 19:13:00,
2013-01-31 14:18:00,60.0,29.2,30.13,West,276,5.0,10.0,31,0.00,,,0.07,631,Wunderground v.1.15,2013-01-31 19:18:00,
2013-01-31 14:28:00,60.4,29.6,30.13,NNE,22,4.0,6.0,31,0.00,,,0.07,610,Wunderground v.1.15,2013-01-31 19:28:00,
2013-01-31 14:33:00,60.2,30.2,30.13,NW,321,3.0,3.0,32,0.00,,,0.07,599,Wunderground v.1.15,2013-01-31 19:33:00,
2013-01-31 14:43:00,60.7,30.6,30.13,WSW,246,3.0,6.0,32,0.00,,,0.07,578,Wunderground v.1.15,2013-01-31 19:43:00,
2013-01-31 14:48:00,60.9,30.8,30.13,WNW,301,3.0,8.0,32,0.00,,,0.07,568,Wunderground v.1.15,2013-01-31 19:48:00,
2013-01-31 14:58:00,60.8,29.9,30.13,NNE,33,4.0,7.0,31,0.00,,,0.07,545,Wunderground v.1.15,2013-01-31 19:58:00,
2013-01-31 15:03:00,60.4,29.6,30.13,NW,320,4.0,4.0,31,0.00,,,0.07,529,Wunderground v.1.15,2013-01-31 20:03:00,
2013-01-31 15:13:00,60.6,30.6,30.13,NW,321,2.0,2.0,32,0.00,,,0.07,501,Wunderground v.1.15,2013-01-31 20:13:00,
2013-01-31 15:18:00,60.3,29.5,30.13,NW,310,2.0,2.0,31,0.00,,,0.07,489,Wunderground v.1.15,2013-01-31 20:18:00,
2013-01-31 15:28:00,60.2,29.4,30.13,WSW,258,3.0,6.0,31,0.00,,,0.07,462,Wunderground v.1.15,2013-01-31 20:28:00,
2013-01-31 15:33:00,60.4,30.4,30.13,West,275,3.0,3.0,32,0.00,,,0.07,448,Wunderground v.1.15,2013-01-31 20:33:00,
2013-01-31 15:38:00,60.4,31.9,30.13,SW,229,3.0,4.0,34,0.00,,,0.07,434,Wunderground v.1.15,2013-01-31 20:38:00,
2013-01-31 15:43:00,60.4,30.4,30.13,NW,321,4.0,8.0,32,0.00,,,0.07,418,Wunderground v.1.15,2013-01-31 20:43:00,
2013-01-31 15:53:00,59.8,29.9,30.13,NW,323,4.0,5.0,32,0.00,,,0.07,387,Wunderground v.1.15,2013-01-31 20:53:00,
2013-01-31 15:58:00,59.6,31.2,30.14,WSW,257,3.0,6.0,34,0.00,,,0.07,373,Wunderground v.1.15,2013-01-31 20:58:00,
2013-01-31 16:03:00,59.6,30.4,30.14,WNW,302,3.0,4.0,33,0.00,,,0.07,353,Wunderground v.1.15,2013-01-31 21:03:00,
2013-01-31 16:13:00,59.2,30.8,30.14,NNE,24,3.0,3.0,34,0.00,,,0.07,323,Wunderground v.1.15,2013-01-31 21:13:00,
2013-01-31 16:18:00,59.1,30.7,30.14,NW,312,3.0,4.0,34,0.00,,,0.07,304,Wunderground v.1.15,2013-01-31 21:18:00,
2013-01-31 16:28:00,58.6,30.3,30.14,WNW,303,4.0,5.0,34,0.00,,,0.07,258,Wunderground v.1.15,2013-01-31 21:28:00,
2013-01-31 16:33:00,58.5,30.9,30.14,NW,314,3.0,3.0,35,0.00,,,0.07,216,Wunderground v.1.15,2013-01-31 21:33:00,
2013-01-31 16:43:00,58.3,31.4,30.14,North,364,2.0,2.0,36,0.00,,,0.07,174,Wunderground v.1.15,2013-01-31 21:43:00,
2013-01-31 16:48:00,58.4,31.5,30.14,NNW,332,2.0,2.0,36,0.00,,,0.07,104,Wunderground v.1.15,2013-01-31 21:48:00,
2013-01-31 16:58:00,58.2,31.3,30.14,West,270,1.0,2.0,36,0.00,,,0.07,132,Wunderground v.1.15,2013-01-31 21:58:00,
2013-01-31 17:03:00,58.0,30.5,30.14,West,279,1.0,6.0,35,0.00,,,0.07,114,Wunderground v.1.15,2013-01-31 22:03:00,
2013-01-31 17:13:00,57.7,30.9,30.15,NW,326,2.0,3.0,36,0.00,,,0.07,77,Wunderground v.1.15,2013-01-31 22:13:00,
2013-01-31 17:18:00,57.5,30.0,30.15,NW,320,1.0,4.0,35,0.00,,,0.07,60,Wunderground v.1.15,2013-01-31 22:18:00,
2013-01-31 17:28:00,57.2,29.8,30.15,WNW,301,2.0,3.0,35,0.00,,,0.07,21,Wunderground v.1.15,2013-01-31 22:28:00,
2013-01-31 17:33:00,57.1,29.7,30.15,NW,307,2.0,3.0,35,0.00,,,0.07,19,Wunderground v.1.15,2013-01-31 22:33:00,
2013-01-31 17:43:00,56.7,30.0,30.16,WNW,302,1.0,6.0,36,0.00,,,0.07,14,Wunderground v.1.15,2013-01-31 22:43:00,
2013-01-31 17:53:00,56.1,30.2,30.16,WNW,297,1.0,1.0,37,0.00,,,0.07,9,Wunderground v.1.15,2013-01-31 22:53:00,
2013-01-31 17:58:00,55.8,29.9,30.16,West,261,1.0,1.0,37,0.00,,,0.07,7,Wunderground v.1.15,2013-01-31 22:58:00,
2013-01-31 18:03:00,55.6,30.4,30.16,West,273,1.0,1.0,38,0.00,,,0.07,0,Wunderground v.1.15,2013-01-31 23:03:00,
2013-01-31 18:13:00,55.2,30.7,30.16,West,273,0.0,0.0,39,0.00,,,0.07,0,Wunderground v.1.15,2013-01-31 23:13:00,
2013-01-31 18:18:00,54.9,31.0,30.16,West,273,0.0,0.0,40,0.00,,,0.07,0,Wunderground v.1.15,2013-01-31 23:18:00,
2013-01-31 18:28:00,54.5,30.6,30.17,West,273,0.0,0.0,40,0.00,,,0.07,0,Wunderground v.1.15,2013-01-31 23:28:00,
2013-01-31 18:33:00,54.3,31.7,30.17,West,273,0.0,0.0,42,0.00,,,0.07,0,Wunderground v.1.15,2013-01-31 23:33:00,
2013-01-31 18:43:00,53.9,32.5,30.18,West,273,0.0,0.0,44,0.00,,,0.07,0,Wunderground v.1.15,2013-01-31 23:43:00,
2013-01-31 18:48:00,53.7,32.3,30.18,West,273,0.0,0.0,44,0.00,,,0.07,0,Wunderground v.1.15,2013-01-31 23:48:00,
2013-01-31 18:58:00,53.2,34.0,30.19,West,273,0.0,0.0,48,0.00,,,0.07,0,Wunderground v.1.15,2013-01-31 23:58:00,
2013-01-31 19:03:00,52.7,33.0,30.19,West,273,0.0,0.0,47,0.00,,,0.07,0,Wunderground v.1.15,2013-02-01 00:03:00,
2013-01-31 19:13:00,52.2,33.6,30.19,West,273,0.0,0.0,49,0.00,,,0.07,0,Wunderground v.1.15,2013-02-01 00:13:00,
2013-01-31 19:23:00,51.7,33.6,30.19,West,273,0.0,0.0,50,0.00,,,0.07,0,Wunderground v.1.15,2013-02-01 00:23:00,
2013-01-31 19:28:00,51.4,34.3,30.20,West,273,0.0,0.0,52,0.00,,,0.07,0,Wunderground v.1.15,2013-02-01 00:28:00,
2013-01-31 19:33:00,50.9,34.4,30.19,West,273,0.0,0.0,53,0.00,,,0.07,0,Wunderground v.1.15,2013-02-01 00:33:00,
2013-01-31 19:43:00,50.3,35.2,30.20,West,273,0.0,0.0,56,0.00,,,0.07,0,Wunderground v.1.15,2013-02-01 00:43:00,
2013-01-31 19:48:00,49.9,35.3,30.20,West,273,0.0,0.0,57,0.00,,,0.07,0,Wunderground v.1.15,2013-02-01 00:48:00,
2013-01-31 19:58:00,49.2,35.0,30.21,West,273,0.0,0.0,58,0.00,,,0.07,0,Wunderground v.1.15,2013-02-01 00:58:00,
2013-01-31 20:03:00,48.9,35.2,30.21,West,273,0.0,0.0,59,0.00,,,0.07,0,Wunderground v.1.15,2013-02-01 01:03:00,
2013-01-31 20:13:00,48.4,35.6,30.22,West,273,0.0,0.0,61,0.00,,,0.07,0,Wunderground v.1.15,2013-02-01 01:13:00,
2013-01-31 20:18:00,48.1,35.3,30.22,West,273,0.0,0.0,61,0.00,,,0.07,0,Wunderground v.1.15,2013-02-01 01:18:00,
2013-01-31 20:28:00,47.6,35.2,30.23,West,273,0.0,0.0,62,0.00,,,0.07,0,Wunderground v.1.15,2013-02-01 01:28:00,
2013-01-31 20:33:00,47.4,35.4,30.23,West,273,0.0,0.0,63,0.00,,,0.07,0,Wunderground v.1.15,2013-02-01 01:33:00,
2013-01-31 20:43:00,47.0,35.0,30.23,West,273,0.0,0.0,63,0.00,,,0.07,0,Wunderground v.1.15,2013-02-01 01:43:00,
2013-01-31 20:48:00,46.7,35.6,30.23,West,273,0.0,0.0,65,0.00,,,0.07,0,Wunderground v.1.15,2013-02-01 01:48:00,
2013-01-31 20:58:00,46.5,36.1,30.24,West,273,0.0,0.0,67,0.00,,,0.07,0,Wunderground v.1.15,2013-02-01 01:58:00,
2013-01-31 21:08:00,46.1,35.7,30.24,West,273,0.0,0.0,67,0.00,,,0.07,0,Wunderground v.1.15,2013-02-01 02:08:00,
2013-01-31 21:13:00,46.0,36.0,30.24,West,273,0.0,0.0,68,0.00,,,0.07,0,Wunderground v.1.15,2013-02-01 02:13:00,
2013-01-31 21:18:00,45.8,35.8,30.24,West,273,0.0,0.0,68,0.00,,,0.07,0,Wunderground v.1.15,2013-02-01 02:18:00,
2013-01-31 21:28:00,45.6,36.0,30.25,West,273,0.0,0.0,69,0.00,,,0.07,0,Wunderground v.1.15,2013-02-01 02:28:00,
2013-01-31 21:33:00,45.5,35.9,30.25,West,273,0.0,0.0,69,0.00,,,0.07,0,Wunderground v.1.15,2013-02-01 02:33:00,
2013-01-31 21:43:00,45.2,36.0,30.25,West,273,0.0,0.0,70,0.00,,,0.07,0,Wunderground v.1.15,2013-02-01 02:43:00,
2013-01-31 21:48:00,45.0,35.4,30.25,West,273,0.0,0.0,69,0.00,,,0.07,0,Wunderground v.1.15,2013-02-01 02:48:00,
2013-01-31 21:58:00,44.7,35.1,30.26,West,273,0.0,0.0,69,0.00,,,0.07,0,Wunderground v.1.15,2013-02-01 02:58:00,
2013-01-31 22:03:00,44.5,35.0,30.26,West,273,0.0,0.0,69,0.00,,,0.07,0,Wunderground v.1.15,2013-02-01 03:03:00,
2013-01-31 22:13:00,44.5,35.0,30.26,West,273,0.0,0.0,69,0.00,,,0.07,0,Wunderground v.1.15,2013-02-01 03:13:00,
2013-01-31 22:18:00,44.4,34.9,30.26,West,273,0.0,0.0,69,0.00,,,0.07,0,Wunderground v.1.15,2013-02-01 03:18:00,
2013-01-31 22:28:00,44.3,34.8,30.27,West,273,0.0,0.0,69,0.00,,,0.07,0,Wunderground v.1.15,2013-02-01 03:28:00,
2013-01-31 22:33:00,44.3,34.8,30.26,West,273,0.0,1.0,69,0.00,,,0.07,0,Wunderground v.1.15,2013-02-01 03:33:00,
2013-01-31 22:43:00,44.5,34.6,30.26,West,273,0.0,0.0,68,0.00,,,0.07,0,Wunderground v.1.15,2013-02-01 03:43:00,
2013-01-31 22:48:00,44.6,34.7,30.26,West,273,0.0,0.0,68,0.00,,,0.07,0,Wunderground v.1.15,2013-02-01 03:48:00,
2013-01-31 22:58:00,44.8,33.7,30.26,West,273,0.0,0.0,65,0.00,,,0.07,0,Wunderground v.1.15,2013-02-01 03:58:00,
2013-01-31 23:03:00,44.9,33.8,30.27,West,273,0.0,0.0,65,0.00,,,0.07,0,Wunderground v.1.15,2013-02-01 04:03:00,
2013-01-31 23:13:00,45.0,33.9,30.27,West,273,0.0,0.0,65,0.00,,,0.07,0,Wunderground v.1.15,2013-02-01 04:13:00,
2013-01-31 23:18:00,45.0,33.9,30.26,West,273,0.0,0.0,65,0.00,,,0.07,0,Wunderground v.1.15,2013-02-01 04:18:00,
2013-01-31 23:28:00,44.9,33.8,30.26,West,273,0.0,0.0,65,0.00,,,0.07,0,Wunderground v.1.15,2013-02-01 04:28:00,
2013-01-31 23:33:00,44.8,34.1,30.26,West,273,0.0,0.0,66,0.00,,,0.07,0,Wunderground v.1.15,2013-02-01 04:33:00,
2013-01-31 23:43:00,44.7,33.3,30.26,West,274,0.0,1.0,64,0.00,,,0.07,0,Wunderground v.1.15,2013-02-01 04:43:00,
2013-01-31 23:53:00,44.8,33.4,30.26,West,278,1.0,1.0,64,0.00,,,0.07,0,Wunderground v.1.15,2013-02-01 04:53:00,
2013-01-31 23:58:00,44.8,33.4,30.26,West,278,1.0,1.0,64,0.00,,,0.07,0,Wunderground v.1.15,2013-02-01 04:58:00,